Temperature
7 6 6 6 6 6 6 6 6 6 5 5 5 5 5 4 4 4 3 3 3 3 2 2 2 1 1 0 -0 -1 -1 -2 -3 -2 -2 -2 -2 -2 -1 -1 -1 -1 -1
6 6 6 6 5 5 5 5 5 5 5 4 4 4 4 4 3 3 3 3 2 2 2 1 1 1 0 -0 -1 -1 -2 -2 -3 -3 -2 -3 -2 -2 -2 -2 -2 -3 -3
5 5 5 5 5 5 5 5 4 4 4 4 3 3 3 3 2 2 2 1 1 1 1 0 0 -0 -0 -1 -1 -2 -2 -2 -3 -3 -3 -3 -4 -3 -3 -3 -3 -3 -3
5 5 5 4 4 4 4 4 4 3 3 3 3 2 2 1 1 1 0 0 0 0 -0 -0 -1 -1 -1 -1 -2 -2 -2 -3 -3 -4 -4 -4 -5 -5 -5 -5 -4 -4 -4
4 4 4 4 4 3 3 3 3 3 2 2 2 1 1 0 0 -0 -1 -1 -1 -1 -1 -1 -1 -1 -2 -2 -2 -2 -3 -3 -4 -4 -4 -5 -5 -5 -5 -5 -5 -5 -5
4 4 3 3 3 3 2 2 2 2 1 1 1 0 0 -0 -1 -2 -2 -2 -2 -2 -2 -2 -2 -2 -2 -2 -3 -3 -3 -3 -3 -4 -4 -5 -5 -5 -5 -5 -6 -6 -7
3 3 3 2 2 2 1 1 1 0 0 -0 -0 -1 -1 -1 -2 -2 -3 -3 -3 -3 -3 -3 -3 -3 -3 -3 -3 -3 -3 -3 -3 -3 -4 -4 -4 -4 -5 -5 -6 -6 -6
2 2 2 1 1 1 0 0 -0 -1 -1 -2 -2 -2 -2 -2 -3 -3 -3 -3 -3 -3 -3 -3 -3 -3 -3 -3 -3 -4 -3 -3 -3 -3 -3 -3 -4 -4 -4 -4 -5 -5 -6
2 1 1 0 0 -0 -1 -1 -1 -2 -2 -2 -3 -3 -3 -3 -3 -3 -4 -4 -4 -4 -4 -4 -4 -4 -3 -4 -4 -4 -4 -4 -4 -4 -4 -4 -4 -4 -4 -5 -6 -7 -7
1 1 0 -0 -1 -1 -2 -2 -2 -3 -3 -4 -4 -4 -4 -4 -4 -4 -4 -4 -4 -4 -4 -4 -4 -4 -4 -4 -4 -4 -4 -4 -4 -4 -4 -4 -4 -4 -5 -5 -5 -6 -7
0 -0 -0 -1 -2 -2 -3 -3 -4 -4 -4 -5 -5 -5 -5 -4 -4 -4 -4 -4 -4 -4 -4 -4 -4 -4 -4 -4 -4 -4 -4 -4 -4 -4 -4 -5 -5 -5 -5 -5 -5 -6 -7
-0 -1 -1 -2 -2 -3 -3 -4 -4 -5 -5 -6 -6 -6 -5 -5 -5 -5 -5 -4 -4 -4 -4 -4 -4 -4 -4 -4 -4 -4 -4 -4 -4 -4 -5 -5 -5 -5 -5 -5 -6 -6 -6
-1 -1 -2 -2 -3 -3 -4 -5 -5 -6 -6 -6 -6 -6 -6 -5 -5 -5 -5 -5 -4 -4 -4 -4 -4 -4 -4 -4 -4 -5 -5 -5 -5 -5 -5 -5 -5 -5 -5 -6 -6 -6 -6
-2 -2 -3 -3 -3 -4 -5 -6 -6 -6 -7 -7 -6 -6 -6 -5 -5 -5 -5 -5 -5 -5 -4 -4 -4 -4 -4 -5 -5 -5 -5 -5 -5 -5 -5 -5 -6 -6 -6 -6 -6 -6 -7
-3 -3 -4 -4 -5 -5 -6 -6 -7 -7 -7 -6 -6 -6 -6 -6 -5 -5 -5 -5 -5 -5 -5 -5 -4 -5 -5 -5 -5 -5 -5 -5 -6 -6 -6 -6 -6 -6 -6 -6 -6 -7 -7
-4 -4 -5 -5 -6 -6 -7 -7 -6 -6 -6 -6 -6 -6 -6 -6 -6 -5 -5 -5 -5 -5 -5 -5 -5 -5 -5 -5 -6 -6 -6 -6 -6 -6 -6 -6 -6 -6 -6 -6 -7 -7 -7
-5 -5 -6 -6 -7 -7 -7 -7 -7 -6 -6 -6 -6 -6 -6 -6 -6 -6 -6 -6 -5 -6 -6 -6 -6 -6 -6 -6 -6 -6 -6 -6 -6 -6 -6 -7 -7 -7 -7 -7 -7 -7 -8
-5 -6 -6 -7 -7 -7 -7 -7 -7 -7 -7 -7 -6 -6 -7 -7 -6 -6 -6 -6 -6 -6 -6 -6 -6 -6 -7 -6 -6 -6 -6 -6 -7 -7 -7 -7 -7 -7 -7 -7 -7 -8 -8
-6 -6 -7 -7 -7 -7 -7 -7 -8 -8 -8 -8 -7 -7 -7 -7 -7 -7 -7 -7 -7 -7 -7 -7 -7 -7 -7 -7 -7 -7 -7 -7 -7 -7 -7 -7 -7 -7 -7 -7 -8 -8 -8
-6 -6 -7 -8 -8 -7 -7 -8 -8 -8 -8 -8 -8 -7 -7 -7 -7 -7 -7 -7 -7 -7 -7 -7 -7 -7 -7 -7 -7 -7 -7 -7 -7 -7 -7 -7 -7 -7 -7 -8 -8 -8 -8
-6 -7 -7 -8 -8 -8 -8 -8 -8 -8 -8 -8 -8 -8 -8 -8 -8 -7 -7 -7 -7 -7 -7 -7 -7 -7 -7 -7 -7 -7 -7 -7 -7 -7 -8 -8 -8 -8 -8 -8 -8 -9 -9
-7 -7 -8 -8 -8 -8 -8 -8 -8 -8 -8 -8 -8 -8 -8 -8 -8 -8 -8 -8 -8 -8 -7 -8 -7 -7 -7 -7 -7 -7 -7 -8 -8 -8 -8 -8 -8 -8 -8 -9 -9 -9 -10
-7 -8 -8 -8 -8 -8 -8 -8 -8 -8 -8 -8 -8 -8 -8 -8 -8 -8 -8 -8 -8 -8 -8 -8 -7 -7 -7 -8 -8 -8 -8 -8 -8 -8 -8 -8 -8 -9 -9 -9 -9 -10 -10
-8 -8 -8 -8 -8 -9 -9 -9 -8 -8 -9 -9 -8 -8 -8 -8 -8 -8 -8 -8 -8 -8 -8 -8 -8 -8 -8 -8 -8 -8 -8 -8 -8 -8 -9 -9 -9 -9 -9 -10 -10 -10 -10
-8 -8 -8 -9 -9 -9 -9 -9 -9 -9 -9 -9 -9 -8 -8 -8 -8 -8 -8 -8 -8 -8 -8 -8 -8 -8 -8 -8 -8 -8 -8 -8 -9 -9 -9 -9 -9 -10 -10 -10 -10 -10 -11
-8 -9 -9 -9 -9 -9 -9 -9 -9 -9 -9 -9 -9 -8 -8 -8 -8 -8 -8 -8 -8 -8 -8 -8 -8 -8 -8 -8 -8 -9 -9 -9 -9 -9 -9 -10 -10 -10 -10 -10 -10 -11 -11
Wind_Speed
7 7 7 8 7 7 7 8 8 8 9 9 10 10 10 11 11 11 13 13 15 16 15 16 19 17 16 14 14 15 16 16 22 17 7 9 12 13 12 15 20 20 21
7 7 8 8 8 8 9 9 9 9 9 10 10 11 11 12 11 12 14 14 15 16 16 16 18 16 18 16 15 17 17 17 19 24 10 9 13 12 12 12 12 16 16
7 8 9 9 9 9 10 10 10 10 11 10 10 11 12 12 12 13 14 15 15 16 15 16 17 16 18 16 17 17 16 16 17 20 17 9 10 9 10 11 12 11 13
8 8 9 10 10 10 10 11 11 11 11 12 12 12 13 13 13 14 14 15 15 15 15 16 16 16 18 17 17 18 16 16 16 18 17 11 10 7 9 11 12 11 13
9 10 10 11 10 10 11 11 12 12 13 13 13 14 13 12 12 13 13 15 15 16 15 16 16 20 23 20 17 15 15 16 15 16 17 13 12 8 10 10 14 10 11
10 11 11 11 11 11 12 13 13 13 13 13 13 15 15 14 22 27 22 15 14 15 15 14 15 19 23 28 30 28 23 19 18 17 17 17 15 14 12 12 12 11 11
11 12 12 12 13 13 14 13 14 14 13 14 13 14 16 18 27 29 29 20 15 13 13 13 13 13 19 15 21 27 27 30 29 20 20 20 16 15 15 15 14 12 13
11 12 12 12 14 14 14 14 15 13 14 14 15 15 16 19 28 30 29 20 14 13 13 13 14 14 14 15 14 15 16 17 20 17 17 16 15 12 15 17 16 15 10
12 12 12 13 14 15 16 16 15 15 15 15 15 15 17 20 27 29 28 13 12 13 13 13 14 14 21 24 17 15 15 15 21 27 27 23 25 25 20 13 14 12 12
13 13 13 13 14 16 17 17 15 14 16 16 16 15 17 18 25 28 27 12 12 12 11 12 18 19 21 23 15 14 16 14 12 13 16 19 17 19 25 18 15 14 8
13 14 14 13 14 16 16 15 15 16 16 16 17 16 15 18 23 26 26 13 11 13 12 10 10 20 22 23 20 14 17 15 11 12 11 10 9 10 12 13 13 13 12
13 14 15 14 14 14 15 16 15 15 17 17 16 16 12 14 19 21 25 24 22 14 12 10 12 21 22 22 18 18 21 18 9 9 9 10 10 10 10 10 11 12 12
15 15 15 15 13 13 14 16 16 14 14 15 15 15 14 11 14 24 25 25 25 16 12 19 22 24 21 15 18 20 16 8 7 8 9 9 9 8 8 8 8 9 11
15 16 15 15 15 13 11 12 13 14 14 15 15 15 15 14 12 10 11 14 18 17 14 17 22 22 17 15 14 11 7 6 7 8 7 7 6 7 8 8 8 8 7
15 15 14 13 14 15 13 12 14 13 16 18 15 15 16 16 17 25 21 14 13 14 14 10 9 8 7 6 7 7 7 7 7 6 7 7 7 8 8 8 7 7 7
14 14 13 13 13 13 15 16 19 21 26 27 26 24 18 22 28 29 28 26 26 25 17 10 9 8 7 7 7 7 6 7 7 6 6 6 7 8 8 7 6 7 8
13 15 13 13 14 14 15 15 17 19 23 25 25 26 25 27 27 27 26 25 23 20 10 8 8 8 7 7 6 6 6 6 5 6 6 6 6 7 6 7 7 7 8
13 16 16 13 13 14 14 14 15 17 17 14 18 23 25 26 26 25 23 19 12 10 7 8 8 7 6 6 6 5 5 5 5 5 5 5 6 6 6 7 7 7 7
13 12 12 13 13 13 14 14 14 15 15 15 14 16 21 22 22 20 18 9 10 9 8 7 7 7 6 6 5 5 5 4 4 4 4 5 5 5 6 6 7 10 9
11 19 19 15 14 13 13 13 14 14 14 13 13 13 13 14 10 11 10 8 8 8 8 7 7 6 6 5 5 4 4 3 3 3 3 4 4 5 5 7 6 6 7
11 14 21 16 12 13 13 13 13 13 13 13 13 15 20 12 11 11 10 9 8 8 8 7 6 6 5 4 4 4 3 3 3 3 3 3 4 4 4 5 6 6 5
11 12 12 13 13 12 14 12 12 13 13 14 12 14 19 11 9 9 9 8 7 7 7 6 6 5 5 4 4 3 3 3 3 3 3 3 3 4 4 4 5 5 6
11 12 13 12 12 16 15 12 12 12 12 12 12 12 11 10 9 9 8 8 7 7 6 5 5 5 4 4 3 3 3 3 3 3 4 4 4 4 4 5 6 6 7
10 12 13 13 12 12 13 12 12 12 12 12 11 10 10 9 9 9 8 8 7 6 6 5 5 6 6 4 3 3 3 3 3 3 5 5 5 5 5 5 6 7 8
9 11 12 12 12 12 13 13 12 12 12 12 11 10 10 9 9 8 7 7 7 7 7 6 5 5 6 6 5 5 6 7 6 4 4 4 5 6 6 7 7 7 8
10 11 11 11 11 12 12 12 12 12 11 11 11 10 9 9 8 8 7 7 6 6 6 5 6 6 7 6 7 8 9 9 9 8 5 4 6 6 7 7 8 9 9
Wind_Direction
322 317 315 310 306 303 294 289 288 287 287 283 280 278 274 270 264 259 256 254 253 253 248 245 246 241 242 238 235 234 234 233 251 258 212 203 206 218 228 228 227 232 237
311 310 307 304 304 302 296 293 291 289 286 282 281 280 277 273 267 262 264 260 256 256 253 248 249 246 242 240 236 235 235 232 240 256 244 211 215 216 220 224 227 229 229
310 308 306 303 301 298 295 294 293 290 288 286 282 280 279 276 272 268 265 264 260 258 256 252 251 247 247 243 238 238 236 236 236 248 253 225 223 217 220 228 230 230 226
308 306 302 299 297 293 292 292 291 289 288 287 283 280 278 277 274 272 269 267 265 262 258 254 252 247 248 246 243 240 237 236 236 242 250 240 228 204 210 223 232 229 233
307 304 298 296 295 294 293 292 290 287 286 283 284 284 281 279 277 274 270 266 264 264 261 255 252 252 251 251 247 242 235 237 237 240 246 243 232 212 216 215 229 229 229
305 300 298 298 298 296 295 294 293 291 288 285 282 284 285 284 288 292 290 278 268 265 265 261 257 260 262 262 259 253 240 233 233 236 240 239 234 223 217 216 222 224 232
301 299 299 299 298 297 297 298 296 295 291 289 286 285 285 286 293 295 294 291 281 274 269 268 268 264 267 257 260 261 258 250 239 231 236 237 232 221 214 217 216 216 225
301 299 298 299 299 299 299 297 297 295 293 292 292 290 289 291 297 298 298 294 284 277 272 268 268 268 262 262 254 252 251 253 254 247 239 237 232 221 212 215 217 222 226
302 300 300 301 301 302 301 300 299 298 297 294 293 292 292 295 298 299 298 289 284 279 273 268 269 267 270 272 265 257 254 251 255 253 249 244 236 230 218 213 214 217 226
302 301 301 300 300 301 300 300 300 298 297 298 295 293 292 293 295 300 299 291 287 284 276 269 272 274 274 274 266 259 259 254 244 249 252 252 244 238 230 215 209 215 215
300 301 301 299 297 297 298 299 300 300 299 298 297 297 293 291 296 298 298 294 284 284 283 279 270 279 280 279 274 264 262 260 245 239 239 239 232 227 228 222 212 212 212
303 303 303 301 300 303 300 302 301 300 301 302 301 301 295 291 294 295 297 297 297 292 288 284 277 282 281 280 278 272 272 270 255 242 238 232 226 223 221 218 214 214 215
306 305 305 304 300 297 299 302 304 302 301 302 302 301 300 295 294 299 300 300 299 296 285 285 286 287 286 282 280 280 277 268 255 247 238 230 221 215 206 208 210 212 216
305 306 306 307 306 302 298 299 301 302 301 301 301 301 301 300 298 296 292 294 294 292 289 286 287 285 283 279 277 279 268 252 250 247 239 226 208 203 205 203 205 202 210
303 304 305 304 303 305 302 299 300 295 294 300 301 301 303 303 302 305 306 303 300 293 296 287 279 275 268 264 264 261 254 252 254 241 235 223 208 205 205 200 200 199 205
304 306 307 306 306 305 306 305 300 300 302 303 303 302 302 303 307 310 311 311 310 308 305 295 290 281 275 271 267 262 250 245 239 235 230 219 208 206 203 197 196 200 208
296 302 305 305 306 306 306 308 309 309 306 306 307 308 309 311 313 314 314 314 313 315 309 299 294 289 282 275 266 259 254 245 235 231 226 217 210 206 198 196 196 202 211
295 301 304 302 302 302 303 305 306 307 311 311 311 312 314 315 315 317 319 321 316 314 300 297 296 292 287 282 275 265 258 248 237 231 223 212 205 203 200 199 199 203 209
299 301 301 301 301 301 302 304 304 304 306 308 311 313 316 317 317 318 322 315 310 310 306 301 296 292 289 284 280 273 261 250 239 229 220 209 201 200 204 202 202 212 211
299 303 308 306 304 304 304 304 305 306 307 309 311 312 315 316 317 319 319 313 311 308 306 305 301 295 291 287 284 277 268 254 236 224 213 204 199 199 204 203 204 208 213
299 302 306 306 303 303 303 303 304 305 307 309 308 308 316 319 316 315 316 316 315 313 311 307 304 303 298 292 285 277 264 254 234 217 211 207 202 205 206 205 207 210 213
296 298 302 302 304 305 304 304 306 305 306 307 307 310 317 317 312 313 315 315 314 312 311 309 308 307 305 297 288 276 264 254 239 222 216 210 206 207 204 205 208 212 216
295 299 303 303 304 306 308 304 304 305 306 306 308 311 313 314 315 315 315 315 315 313 314 314 313 314 312 306 297 278 266 259 244 221 212 212 212 213 213 216 217 222 227
296 301 304 306 306 305 304 305 305 306 307 307 308 309 311 311 311 311 312 312 313 312 313 315 315 315 316 314 305 296 278 265 244 224 216 218 223 226 226 229 230 233 236
300 304 305 305 305 305 305 305 306 307 308 308 308 309 310 310 310 310 310 311 312 312 314 314 311 311 311 309 304 294 289 281 268 245 219 223 229 232 235 237 239 243 244
303 304 304 303 302 302 303 304 305 306 306 306 306 306 307 307 306 307 308 309 310 309 309 309 307 307 305 301 296 299 299 291 282 271 245 229 234 240 240 246 246 247 249
Height
1494 1491 1487 1484 1480 1476 1473 1468 1464 1460 1456 1451 1447 1443 1439 1435 1431 1427 1422 1418 1414 1410 1408 1405 1401 1400 1398 1397 1396 1395 1394 1393 1386 1378 1385 1387 1390 1392 1394 1396 1397 1398 1400
1490 1486 1482 1478 1475 1470 1466 1462 1457 1452 1448 1443 1438 1434 1429 1425 1421 1416 1411 1407 1403 1398 1395 1393 1389 1388 1386 1384 1383 1382 1380 1380 1378 1370 1372 1375 1377 1380 1382 1384 1386 1387 1388
1485 1481 1477 1473 1468 1464 1459 1454 1450 1444 1439 1435 1429 1424 1419 1414 1409 1405 1400 1395 1391 1387 1384 1381 1378 1377 1373 1372 1371 1369 1368 1368 1366 1363 1359 1364 1365 1367 1370 1372 1373 1375 1376
1480 1475 1471 1466 1461 1456 1451 1446 1441 1436 1430 1425 1419 1414 1409 1403 1398 1393 1388 1383 1379 1375 1372 1369 1366 1364 1361 1360 1359 1357 1356 1356 1355 1353 1350 1352 1354 1355 1358 1358 1360 1362 1364
1474 1469 1465 1460 1454 1449 1444 1438 1432 1427 1421 1415 1409 1403 1398 1392 1387 1382 1376 1371 1367 1362 1359 1357 1355 1353 1350 1348 1346 1344 1345 1344 1343 1342 1340 1341 1342 1344 1343 1345 1348 1350 1352
1468 1463 1458 1452 1447 1441 1435 1429 1423 1417 1411 1405 1398 1392 1386 1381 1376 1372 1367 1361 1356 1352 1348 1345 1343 1341 1339 1337 1335 1334 1333 1332 1331 1331 1329 1328 1329 1332 1334 1336 1338 1340 1341
1462 1457 1451 1445 1438 1432 1426 1420 1413 1406 1400 1393 1387 1381 1375 1369 1365 1360 1356 1352 1346 1342 1338 1335 1332 1329 1328 1325 1323 1322 1322 1321 1321 1320 1317 1316 1318 1321 1324 1326 1327 1328 1330
1455 1449 1444 1437 1430 1423 1417 1410 1403 1397 1390 1383 1376 1370 1364 1358 1354 1349 1345 1341 1336 1332 1329 1326 1322 1319 1317 1314 1311 1309 1308 1308 1310 1309 1307 1306 1309 1311 1313 1315 1317 1319 1322
1448 1442 1436 1429 1422 1414 1407 1401 1394 1387 1379 1373 1366 1360 1353 1347 1344 1339 1335 1330 1326 1322 1319 1317 1313 1309 1307 1305 1302 1299 1298 1297 1298 1298 1297 1298 1299 1301 1303 1306 1308 1311 1311
1441 1434 1428 1422 1414 1407 1399 1392 1385 1378 1370 1363 1356 1351 1344 1338 1334 1330 1327 1322 1317 1313 1310 1307 1305 1302 1299 1296 1294 1291 1289 1287 1288 1287 1287 1288 1290 1292 1294 1295 1296 1299 1301
1434 1427 1420 1414 1407 1399 1391 1384 1376 1369 1361 1354 1347 1341 1336 1331 1326 1323 1319 1315 1310 1306 1302 1298 1296 1293 1291 1288 1286 1283 1281 1280 1279 1278 1278 1278 1280 1281 1283 1286 1287 1289 1291
1426 1418 1411 1405 1398 1391 1383 1375 1368 1361 1353 1345 1338 1332 1327 1323 1319 1315 1312 1308 1304 1299 1295 1291 1288 1285 1282 1280 1278 1275 1274 1273 1271 1270 1269 1269 1270 1272 1274 1277 1279 1281 1284
1417 1410 1403 1395 1389 1382 1375 1367 1359 1353 1346 1339 1332 1325 1319 1316 1312 1308 1304 1300 1296 1292 1287 1283 1280 1277 1274 1271 1269 1267 1266 1264 1263 1262 1261 1261 1263 1264 1267 1269 1271 1274 1277
1409 1402 1394 1387 1379 1373 1367 1360 1353 1346 1340 1333 1327 1320 1314 1309 1305 1300 1296 1292 1287 1283 1279 1274 1271 1268 1266 1263 1261 1259 1258 1257 1256 1255 1254 1255 1256 1258 1259 1262 1264 1267 1269
1402 1394 1387 1379 1372 1365 1358 1354 1347 1341 1337 1330 1322 1317 1310 1303 1299 1295 1290 1284 1280 1275 1270 1266 1263 1260 1257 1255 1253 1251 1250 1249 1248 1248 1248 1248 1249 1251 1253 1255 1258 1260 1262
1395 1387 1380 1372 1365 1358 1351 1344 1339 1335 1329 1323 1318 1312 1305 1299 1293 1288 1283 1277 1272 1268 1264 1259 1255 1252 1250 1247 1245 1244 1243 1242 1241 1241 1242 1242 1244 1245 1247 1249 1251 1253 1255
1389 1381 1373 1366 1359 1352 1346 1339 1330 1324 1320 1315 1310 1304 1299 1292 1286 1281 1275 1270 1266 1261 1257 1253 1249 1246 1243 1241 1239 1238 1236 1236 1236 1236 1236 1237 1238 1240 1241 1243 1245 1247 1249
1382 1375 1368 1360 1354 1347 1341 1335 1327 1319 1312 1305 1301 1297 1291 1286 1280 1275 1270 1264 1259 1255 1252 1248 1244 1241 1239 1236 1234 1233 1232 1231 1231 1231 1232 1232 1234 1235 1236 1238 1239 1241 1242
1374 1367 1361 1354 1348 1342 1336 1329 1322 1316 1309 1301 1295 1289 1285 1280 1275 1270 1265 1260 1255 1251 1247 1244 1240 1237 1235 1232 1231 1229 1228 1227 1227 1227 1227 1228 1229 1230 1231 1232 1234 1235 1236
1367 1361 1355 1348 1342 1336 1330 1323 1317 1311 1304 1298 1291 1285 1280 1275 1269 1265 1260 1256 1252 1248 1244 1240 1237 1234 1231 1229 1228 1226 1225 1224 1224 1223 1224 1224 1225 1226 1226 1227 1228 1229 1229
1360 1353 1348 1342 1336 1330 1324 1318 1312 1306 1300 1293 1287 1282 1278 1272 1267 1262 1257 1253 1249 1245 1241 1238 1234 1232 1229 1227 1225 1223 1222 1221 1221 1220 1220 1221 1221 1221 1221 1222 1222 1223 1223
1353 1347 1342 1336 1330 1324 1318 1313 1307 1301 1295 1289 1283 1278 1273 1269 1264 1259 1254 1250 1246 1243 1239 1236 1232 1230 1227 1225 1223 1221 1220 1219 1218 1217 1217 1217 1217 1217 1217 1217 1217 1217 1217
1347 1341 1336 1330 1324 1318 1312 1307 1301 1296 1290 1285 1279 1274 1269 1265 1260 1256 1252 1248 1244 1240 1237 1234 1231 1228 1225 1223 1221 1219 1218 1216 1215 1214 1214 1213 1213 1212 1212 1212 1211 1211 1211
1341 1336 1329 1323 1318 1312 1306 1301 1296 1291 1286 1280 1275 1271 1266 1262 1257 1253 1249 1245 1242 1238 1235 1232 1229 1226 1223 1221 1219 1217 1215 1214 1212 1211 1210 1209 1208 1208 1207 1206 1205 1205 1204
1335 1329 1323 1317 1312 1306 1301 1296 1291 1286 1281 1276 1272 1267 1263 1258 1254 1250 1246 1243 1239 1236 1233 1230 1227 1224 1221 1219 1216 1214 1212 1211 1209 1208 1207 1205 1204 1203 1202 1201 1200 1198 1197
1328 1323 1317 1311 1306 1301 1296 1291 1286 1281 1276 1272 1268 1263 1259 1255 1251 1247 1244 1240 1237 1233 1230 1227 1224 1221 1218 1216 1213 1211 1209 1208 1206 1204 1203 1201 1199 1198 1196 1195 1193 1192 1190